Regional Weather Roundup
Issued by NWS State College, PA

Home | Current Version | Previous Version | Text Only | Print | Product List | Glossary On
Versions: 1 2 3 4 5 6 7 8 9 10 11 12 13 14 15 16 17 18 19 20 21 22 23 24 25 26 27 28 29 30 31 32 33 34 35 36 37 38 39 40 41 42 43 44 45 46 47 48 49 50
000
ASUS41 KCTP 240203
RWRCTP

REGIONAL WEATHER ROUNDUP
NATIONAL WEATHER SERVICE STATE COLLEGE PA
1000 PM EDT TUE AUG 23 2016

Note: "fair" indicates few or no clouds below 12,000 feet with no
significant weather and/or obstructions to visibility.

* = STATION THAT DOES NOT REPORT PRECIPITATION /E.G. RAIN...SNOW...ETC/
    THUNDER OR FOG.

PAZ002>004-007>009-013>016-020>023-029>032-240300-
WESTERN PENNSYLVANIA

CITY           SKY/WX    TMP DP  RH WIND       PRES   REMARKS
ERIE           CLEAR     68  61  78 CALM      30.26R
MEADVILLE      CLEAR     65  58  78 N5        30.29R
FRANKLIN*      CLEAR     64  55  72 CALM      30.30R
NEW CASTLE     FAIR      64  59  83 CALM      30.28R
BEAVER COUNTY  NOT AVBL
BUTLER*        NOT AVBL
PITTSBURGH INT PTCLDY    69  58  67 CALM      30.27R
PITTSBURGH     CLEAR     75  55  49 CALM      30.27R
INDIANA*       PTCLDY    64  63  94 CALM      30.32S
LATROBE        CLEAR     66  64  94 CALM      30.29R
WASHINGTON CO* CLEAR     61  57  88 CALM      30.28S
$$

PAZ004>006-010>012-017>019-024>028-033>037-041-042-045-046-049>053-240300-
CENTRAL PENNSYLVANIA

CITY           SKY/WX    TMP DP  RH WIND       PRES   REMARKS
BRADFORD       CLEAR     59  58  96 CALM      30.32R
DUBOIS         CLOUDY    66  56  70 CALM      30.30R
CLEARFIELD     CLOUDY    65  60  84 CALM      30.31R
JOHNSTOWN      CLEAR     67  57  70 S3        30.33R
ALTOONA        CLEAR     64  60  87 S5        30.32R
STATE COLLEGE  CLOUDY    69  60  70 W3        30.30R
WILLIAMSPORT   CLEAR     67  61  81 CALM      30.26R
SELINSGROVE    CLOUDY    62  62 100 CALM      30.28R
FT INDIANTOWN  CLOUDY    64  59  85 E2        30.28R
CAPITAL CITY   PTCLDY    70  60  70 CALM      30.27R
HARRISBURG     PTCLDY    70  64  81 SE6       30.27R
YORK           CLEAR     70  59  68 S6        30.28R
$$

PAZ038>040-043-044-047-048-054-055-060>062-067>071-240300-
EASTERN PENNSYLVANIA

CITY           SKY/WX    TMP DP  RH WIND       PRES   REMARKS
SCRANTON       CLEAR     66  57  72 SE6       30.28S
MOUNT POCONO   CLEAR     57  54  89 CALM      30.32S
ALLENTOWN      CLEAR     66  58  75 CALM      30.28
QUAKERTOWN*    CLEAR     63  57  82 CALM      30.30R
READING        CLEAR     70  59  68 CALM      30.27R
LANCASTER      PTCLDY    69  62  78 CALM      30.28R
COATESVILLE    CLEAR     70  57  64 CALM      30.31R
POTTSTOWN      CLEAR     65  59  81 CALM      30.30R
BLUE BELL      CLEAR     61  59  94 CALM      30.28R
DOYLESTOWN     CLEAR     66  58  75 CALM      30.28R
WILLOW GROVE   NOT AVBL
NORTH PHILA    CLEAR     72  56  57 W3        30.29R
PHILADELPHIA   CLEAR     75  58  55 SW7       30.28R
$$



USA.gov is the U.S. government's official web portal to all federal, state and local government web resources and services.